Torna al catalogo

YAOGAN-30 M

AttivoMilitareVLEO
NORAD 43172·PAYLOAD·🇨🇳 China

Lanciato Jan 25, 2018 da Xichang Satellite Launch Center

Loading…

Prossimi Passaggi (prossime 24 ore)

TLE

AggiornatoSource: Space-Track

Epoca: Sep 14, 2026, 13:50 UTC

1 43172U 18011D   26257.57706211  .00001978  00000-0  14594-3 0  9990
2 43172  34.9978 326.0057 0001490 174.8844 185.1879 15.03068478471544

Traccia YAOGAN-30 M in tempo reale con AllMySat

Download on the App Store